{"data":{"norad_id":44883,"intl_designator":"2019-093E","name":"CBERS 4A","alt_names":[],"object_type":"PAYLOAD","status":"ACTIVE","operator":null,"country":"CHBZ","launch_date":"2019-12-20","launch_site_code":"TAISC","launch_vehicle":null,"mission":null,"orbit_class":"UNKNOWN","rcs_meters":null,"size_class":null,"mass_kg":null,"dimensions":null,"purposes":[],"wikipedia_slug":null,"has_3d_model":false,"image_url":null,"decayed_at":null,"tle_current":{"epoch":"2026-09-20T04:30:59.255712Z","epoch_age_seconds":31048,"freshness":"FRESH","line1":"1 44883U 19093E   26263.18818583  .00000218  00000+0  34612-4 0  9990","line2":"2 44883  98.0103 330.6712 0001605  45.6259 314.5085 14.81532474365149","mean_motion":14.81532474,"eccentricity":0.0001605,"inclination_deg":98.0103,"raan_deg":330.6712,"arg_perigee_deg":45.6259,"mean_anomaly_deg":314.5085,"bstar":3.4612e-5,"rev_number":36514,"period_min":97.196654496012,"perigee_km":623.36710743244,"apogee_km":625.61495102983,"semimajor_km":7002.6280292311,"source":"CELESTRAK","updated_at":"2026-09-20T09:00:14.571158Z"}}}